This demonstration page uses our WeatherBlox Daily Observations layout. Learn more.

Left ArrowRight Arrow

Hourly Observations for September 16, 2019

Temp ( °F °C ) Dew Point ( °F °C ) Humidity (%) Winds ( mph kmh ) Pressure ( in mb ) Visibility ( mi km ) Precip ( " mm )
12:59 am 00:59 Clear 71 21.7 70 21.1 96 96 Calm 30.09 1019 9 14 0.00 0.00
1:59 am 01:59 Clear 69 20.6 69 20.6 100 100 Calm 30.09 1019 8 13 0.00 0.00
2:59 am 02:59 Clear 70 21.1 70 21.1 100 100 Calm 30.07 1018 10 16 0.00 0.00
3:59 am 03:59 Clear 69 20.6 69 20.6 100 100 Calm 30.07 1018 9 14 0.00 0.00
4:59 am 04:59 Mostly Clear 73 22.8 72 22.2 96 96 N 3 6 30.06 1018 10 16 0.00 0.00
5:59 am 05:59 Mostly Clear 73 22.8 71 21.7 94 94 NNW 5 7 30.07 1018 10 16 0.00 0.00
6:59 am 06:59 Mostly Sunny 70 21.1 70 21.1 100 100 Calm 30.07 1018 9 14 0.00 0.00
7:59 am 07:59 Partly Cloudy 76 24.4 73 22.8 91 91 N 5 7 30.08 1019 9 14 0.00 0.00
8:37 am 08:37 Mostly Cloudy 76 24.4 74 23.3 94 94 N 6 9 30.09 1019 9 14 0.00 0.00
8:49 am 08:49 Mostly Cloudy 77 25 74 23.3 90 90 N 7 11 30.09 1019 8 13 0.00 0.00
8:59 am 08:59 Mostly Cloudy 77 25 75 23.9 94 94 N 7 11 30.09 1019 9 14 0.00 0.00
9:21 am 09:21 Mostly Cloudy 77 25 74 23.3 90 90 N 6 9 30.09 1019 9 14 0.00 0.00
9:59 am 09:59 Mostly Cloudy 77 25 73 22.8 88 88 N 8 13 30.09 1019 9 14 0.00 0.00
10:59 am 10:59 Mostly Cloudy 79 26.1 72 22.2 79 79 N 8 13 30.09 1019 9 14 0.00 0.00
11:59 am 11:59 Partly Cloudy 80 26.7 72 22.2 76 76 NE 7 11 30.08 1019 10 16 0.00 0.00
12:59 pm 12:59 Partly Cloudy 81 27.2 71 21.7 72 72 NE 7 11 30.06 1018 10 16 0.00 0.00
1:59 pm 13:59 Mostly Sunny 82 27.8 72 22.2 72 72 ENE 6 9 30.04 1017 10 16 0.00 0.00
2:59 pm 14:59 Mostly Sunny 82 27.8 66 18.9 58 58 E 9 15 30.03 1017 10 16 0.00 0.00
3:59 pm 15:59 Partly Cloudy 83 28.3 64 17.8 53 53 ENE 8 13 30.00 1016 10 16 0.00 0.00
4:59 pm 16:59 Partly Cloudy 82 27.8 65 18.3 56 56 ENE 7 11 29.98 1015 10 16 0.00 0.00
5:59 pm 17:59 Mostly Sunny 81 27.2 70 21.1 69 69 E 7 11 29.98 1015 10 16 0.00 0.00
6:59 pm 18:59 Sunny 78 25.6 70 21.1 76 76 E 6 9 29.98 1015 10 16 0.00 0.00
7:59 pm 19:59 Mostly Clear 75 23.9 67 19.4 76 76 ESE 5 7 29.99 1016 10 16 0.00 0.00
8:59 pm 20:59 Mostly Clear 73 22.8 68 20 84 84 SE 6 9 30.00 1016 10 16 0.00 0.00
9:59 pm 21:59 Mostly Clear 73 22.8 70 21.1 90 90 SE 5 7 30.00 1016 10 16 0.00 0.00
10:59 pm 22:59 Mostly Clear 72 22.2 69 20.6 91 91 Calm 29.99 1016 10 16 0.00 0.00
11:59 pm 23:59 Mostly Clear 71 21.7 69 20.6 94 94 ESE 5 7 29.98 1015 10 16 0.00 0.00

Powered by AerisWeather